Back to catalog

ONEWEB-0021

AliveCommunicationsPO
NORAD 45134·PAYLOAD·🇬🇧 United Kingdom

Launched Feb 6, 2020 from Baikonur Cosmodrome

Loading…

Next Passes (next 24 hours)

TLE

FreshSource: CelesTrak SupGP

Epoch: Sep 14, 2026, 15:38 UTC

1 45134C 20008D   26257.65190232  .00002284  00000+0  65499-2 0  2574
2 45134  87.8909  18.4665 0001815  98.1202  13.7394 13.10374068    18

Track ONEWEB-0021 in real time with AllMySat

Download on the App Store